TimeCST,TemperatureF,Dew PointF,Humidity,Sea Level PressureIn,VisibilityMPH,Wind Direction,Wind SpeedMPH,Gust SpeedMPH,PrecipitationIn,Events,Conditions,WindDirDegrees,DateUTC
12:53 AM,8.1,-0.0,70,30.46,10.0,WNW,4.6,-,N/A,,Clear,300,2013-02-21 06:53:00
1:53 AM,10.9,1.0,64,30.48,10.0,Calm,Calm,-,N/A,,Clear,0,2013-02-21 07:53:00
2:53 AM,10.9,1.0,64,30.48,10.0,East,4.6,-,N/A,,Clear,80,2013-02-21 08:53:00
3:53 AM,10.0,1.0,67,30.48,10.0,ENE,4.6,-,N/A,,Clear,70,2013-02-21 09:53:00
4:53 AM,6.8,-0.4,72,30.44,10.0,ESE,4.6,-,N/A,,Clear,110,2013-02-21 10:53:00
5:53 AM,8.1,1.0,73,30.40,10.0,ENE,3.5,-,N/A,,Clear,70,2013-02-21 11:53:00
6:53 AM,7.0,-0.9,70,30.50,10.0,South,5.8,-,N/A,,Clear,190,2013-02-21 12:53:00
7:53 AM,8.1,1.0,73,30.50,10.0,East,3.5,-,N/A,,Clear,80,2013-02-21 13:53:00
8:53 AM,9.0,1.0,70,30.47,10.0,East,4.6,-,N/A,,Clear,80,2013-02-21 14:53:00
9:53 AM,12.0,1.9,64,30.43,10.0,ENE,8.1,-,N/A,,Clear,60,2013-02-21 15:53:00
10:53 AM,14.0,3.0,62,30.44,10.0,East,4.6,-,N/A,,Clear,80,2013-02-21 16:53:00
11:53 AM,17.1,3.9,56,30.43,10.0,ENE,6.9,-,N/A,,Clear,60,2013-02-21 17:53:00
12:53 PM,19.0,5.0,54,30.38,10.0,NE,11.5,-,N/A,,Clear,40,2013-02-21 18:53:00
1:53 PM,19.9,7.0,57,30.36,10.0,East,6.9,-,N/A,,Clear,80,2013-02-21 19:53:00
2:53 PM,19.9,8.1,60,30.34,10.0,ENE,10.4,-,N/A,,Clear,70,2013-02-21 20:53:00
3:53 PM,21.0,7.0,55,30.31,10.0,ENE,11.5,-,N/A,,Clear,60,2013-02-21 21:53:00
4:53 PM,21.0,8.1,57,30.29,10.0,NE,8.1,-,N/A,,Clear,50,2013-02-21 22:53:00
5:53 PM,21.0,8.1,57,30.28,10.0,ENE,6.9,-,N/A,,Clear,70,2013-02-21 23:53:00
6:53 PM,21.9,9.0,58,30.24,10.0,NE,8.1,-,N/A,,Clear,50,2013-02-22 00:53:00
7:53 PM,21.9,9.0,58,30.21,10.0,ENE,3.5,-,N/A,,Clear,70,2013-02-22 01:53:00
8:53 PM,21.2,8.6,58,30.18,10.0,Calm,Calm,-,N/A,,Clear,0,2013-02-22 02:53:00
9:53 PM,21.9,9.0,58,30.19,10.0,Calm,Calm,-,N/A,,Partly Cloudy,0,2013-02-22 03:53:00
10:53 PM,21.9,10.0,60,30.16,10.0,ENE,5.8,-,N/A,,Mostly Cloudy,60,2013-02-22 04:53:00
11:53 PM,21.9,10.0,60,30.14,10.0,ENE,4.6,-,N/A,,Overcast,70,2013-02-22 05:53:00